Flag for Canada Weather past 2 weeks in Burlington, Ontario, Canada

Now
40 °F

Quite cool.


Feels Like: 34 °F
Forecast: 37 / 45 °F
Wind: 10 mph from Southwest

Location: Burlington Piers

Current Time: Dec 25, 2014 at 10:03:22 PM

Latest Report: Dec 25, 2014 at 9:00 PM


Visibility: N/A

Pressure: 30.08 "Hg

Humidity: 68%

Dew point: 30 °F

Location of BurlingtonLocation

Historic Weather in Burlington — Graph

°F

Burlington temperature yesterday

Maximum temperature yesterday: 54 °F (at 10:00 PM)
Minimum temperature yesterday: 38 °F (at 12:00 AM)
Average temperature yesterday: 41 °F

Past Weeks' High & Low Weather Summary

 TemperatureHumidityPressure
High54 °F (Dec 24, 10:00 PM)100% (Dec 11, 11:00 AM)30.34 "Hg (Dec 11, 11:00 AM)
Low25 °F (Dec 20, 6:00 AM)36% (Dec 12, 1:00 PM)29.18 "Hg (Dec 24, 9:00 PM)
Average35 °F80%30.00 "Hg
* Reported Dec 10 9:00 PM — Dec 25 9:00 PM, Burlington, Weather by CustomWeather, © 2014

Note: Actual official high and low records may vary slightly from our data, if they occured in-between our weather recording intervals... More about our weather records

Advertising

Burlington weather history for previous 24 hours

 ConditionsComfort  
Time TempWeatherWind HumidityBarometerVisibility
9:00 PM
Dec 25
40 °FQuite cool.10 mph68%30.08 "HgN/A
8:00 PM40 °FQuite cool.8 mph74%30.07 "HgN/A
7:00 PM41 °FQuite cool.8 mph67%30.05 "HgN/A
6:00 PM41 °FQuite cool.7 mph67%30.02 "HgN/A
5:00 PM41 °FQuite cool.10 mph62%29.99 "HgN/A
4:00 PM41 °FQuite cool.10 mph65%29.96 "HgN/A
3:00 PM41 °FQuite cool.14 mph60%29.92 "HgN/A
2:00 PM42 °FQuite cool.12 mph63%29.86 "HgN/A
1:00 PM41 °FQuite cool.12 mph64%29.84 "HgN/A
12:00 PM41 °FQuite cool.14 mph65%29.80 "HgN/A
11:00 AM41 °FQuite cool.13 mph69%29.78 "HgN/A
10:00 AM41 °FQuite cool.12 mph76%29.74 "HgN/A
9:00 AM40 °FQuite cool.10 mph80%29.68 "HgN/A
8:00 AM41 °FQuite cool.10 mph78%29.64 "HgN/A
7:00 AM41 °FQuite cool.12 mph77%29.59 "HgN/A
6:00 AM41 °FQuite cool.12 mph77%29.56 "HgN/A
5:00 AM41 °FQuite cool.15 mph79%29.49 "HgN/A
4:00 AM41 °FQuite cool.18 mph77%29.46 "HgN/A
3:00 AM41 °FQuite cool.15 mph81%29.43 "HgN/A
2:00 AM40 °FChilly.17 mph82%29.37 "HgN/A
1:00 AM42 °FQuite cool.24 mph79%29.30 "HgN/A
12:00 AM44 °FQuite cool.23 mph78%29.25 "HgN/A
11:00 PM
Dec 24
46 °FCool.28 mph80%29.21 "HgN/A
10:00 PM54 °FCool.17 mph94%29.20 "HgN/A
Weather by CustomWeather, © 2014

See weather overviewHow to use our weather pages